| time (UTC) | temp F | wind direction | speed knots | gust knots | rain 1hr in | rain 24hr in | rain mn in | humidity % | barometer mb |
| 20260901141905 | 60 | 176 | 0.0 | 0.0 | 0.00 | 0.04 | 0.01 | 89 | 1012.7 |
| 20260901141408 | 60 | 176 | 0.0 | 0.0 | 0.00 | 0.04 | 0.01 | 88 | 1012.7 |
| 20260901140907 | 60 | 176 | 0.0 | 0.0 | 0.00 | 0.04 | 0.01 | 88 | 1012.7 |
| 20260901140405 | 60 | 176 | 0.0 | 0.0 | 0.00 | 0.04 | 0.01 | 88 | 1012.7 |
| 20260901134906 | 59 | 176 | 0.0 | 0.0 | 0.00 | 0.04 | 0.01 | 89 | 1012.6 |
| 20260901134404 | 59 | 176 | 0.0 | 0.0 | 0.00 | 0.04 | 0.01 | 89 | 1012.6 |
| 20260901133908 | 59 | 176 | 0.0 | 0.0 | 0.00 | 0.04 | 0.01 | 89 | 1012.5 |
| 20260901133407 | 59 | 176 | 0.0 | 0.0 | 0.00 | 0.04 | 0.01 | 89 | 1012.4 |
| 20260901131907 | 59 | 176 | 0.0 | 0.0 | 0.00 | 0.04 | 0.01 | 88 | 1012.2 |
| 20260901130904 | 60 | 176 | 0.0 | 0.0 | 0.00 | 0.04 | 0.01 | 87 | 1012.1 |
| 20260901124904 | 59 | 160 | 0.0 | 0.0 | 0.00 | 0.04 | 0.01 | 88 | 1011.8 |
| 20260901124408 | 59 | 160 | 0.0 | 0.0 | 0.00 | 0.04 | 0.01 | 88 | 1011.8 |
| 20260901123406 | 59 | 160 | 0.0 | 0.0 | 0.00 | 0.04 | 0.01 | 89 | 1011.4 |
| 20260901121906 | 59 | 160 | 0.0 | 0.0 | 0.00 | 0.04 | 0.01 | 89 | 1011.2 |
| 20260901121404 | 59 | 160 | 0.0 | 0.0 | 0.00 | 0.04 | 0.01 | 89 | 1011.3 |
| 20260901120908 | 59 | 160 | 0.0 | 0.0 | 0.00 | 0.04 | 0.01 | 89 | 1011.4 |
| 20260901120406 | 59 | 160 | 0.0 | 0.0 | 0.00 | 0.04 | 0.01 | 88 | 1011.2 |
| 20260901114906 | 60 | 160 | 0.0 | 0.0 | 0.00 | 0.04 | 0.01 | 87 | 1011.6 |
| 20260901114403 | 60 | 160 | 0.0 | 0.0 | 0.00 | 0.04 | 0.01 | 87 | 1011.6 |
| 20260901113908 | 60 | 160 | 0.0 | 0.0 | 0.00 | 0.04 | 0.01 | 86 | 1011.5 |
| 20260901113406 | 60 | 160 | 0.0 | 0.0 | 0.00 | 0.04 | 0.01 | 87 | 1011.4 |
| 20260901111908 | 59 | 161 | 0.0 | 1.7 | 0.00 | 0.04 | 0.01 | 89 | 1011.3 |
| 20260901111405 | 58 | 177 | 0.0 | 0.0 | 0.00 | 0.04 | 0.01 | 90 | 1011.4 |
| 20260901110904 | 58 | 221 | 0.0 | 0.0 | 0.00 | 0.04 | 0.01 | 91 | 1011.4 |
| 20260901110408 | 58 | 221 | 0.0 | 0.0 | 0.00 | 0.04 | 0.01 | 91 | 1011.4 |
| 20260901104903 | 58 | 221 | 0.0 | 0.9 | 0.00 | 0.04 | 0.01 | 93 | 1011.7 |
| 20260901104406 | 58 | 239 | 0.0 | 0.9 | 0.00 | 0.04 | 0.01 | 93 | 1011.7 |
| 20260901103905 | 58 | 255 | 0.0 | 0.9 | 0.00 | 0.04 | 0.01 | 93 | 1011.7 |
| 20260901103403 | 58 | 255 | 0.0 | 0.0 | 0.00 | 0.04 | 0.01 | 93 | 1011.7 |
| 20260901101904 | 57 | 255 | 0.0 | 0.0 | 0.01 | 0.04 | 0.01 | 93 | 1011.9 |
| 20260901101407 | 57 | 255 | 0.0 | 0.0 | 0.01 | 0.04 | 0.01 | 93 | 1011.9 |
| 20260901100906 | 57 | 255 | 0.0 | 0.0 | 0.01 | 0.04 | 0.01 | 93 | 1011.8 |
| 20260901100405 | 58 | 255 | 0.0 | 0.0 | 0.01 | 0.04 | 0.01 | 93 | 1011.8 |
| 20260901094906 | 58 | 255 | 0.0 | 0.0 | 0.01 | 0.04 | 0.01 | 93 | 1012.1 |
| 20260901094405 | 58 | 255 | 0.0 | 0.0 | 0.01 | 0.04 | 0.01 | 93 | 1012.2 |
| 20260901093908 | 58 | 255 | 0.0 | 0.0 | 0.01 | 0.04 | 0.01 | 92 | 1012.3 |
| 20260901093407 | 58 | 255 | 0.0 | 0.0 | 0.01 | 0.04 | 0.01 | 92 | 1012.2 |
| 20260901091906 | 59 | 255 | 0.0 | 0.0 | 0.00 | 0.03 | 0.00 | 92 | 1012.2 |
| 20260901091405 | 59 | 255 | 0.0 | 0.0 | 0.00 | 0.03 | 0.00 | 92 | 1012.1 |
| 20260901090908 | 59 | 255 | 0.0 | 0.0 | 0.00 | 0.03 | 0.00 | 92 | 1012.1 |
| 20260901090407 | 59 | 255 | 0.0 | 0.0 | 0.00 | 0.03 | 0.00 | 92 | 1012.1 |
| 20260901084907 | 59 | 255 | 0.0 | 0.0 | 0.00 | 0.03 | 0.00 | 93 | 1012.3 |
| 20260901084405 | 59 | 255 | 0.0 | 0.0 | 0.00 | 0.03 | 0.00 | 93 | 1012.4 |
| 20260901083905 | 59 | 256 | 0.0 | 0.0 | 0.00 | 0.03 | 0.00 | 94 | 1012.3 |
| 20260901083409 | 59 | 256 | 0.0 | 0.0 | 0.00 | 0.03 | 0.00 | 94 | 1012.5 |
| 20260901081908 | 60 | 256 | 0.0 | 0.0 | 0.00 | 0.03 | 0.00 | 93 | 1012.6 |
| 20260901081406 | 60 | 256 | 0.0 | 0.0 | 0.00 | 0.03 | 0.00 | 93 | 1012.6 |
| 20260901080404 | 60 | 256 | 0.0 | 0.0 | 0.00 | 0.03 | 0.00 | 93 | 1012.6 |
| 20260901074904 | 60 | 256 | 0.0 | 0.0 | 0.00 | 0.03 | 0.00 | 93 | 1012.8 |
| 20260901074407 | 60 | 256 | 0.0 | 0.0 | 0.00 | 0.03 | 0.00 | 93 | 1012.9 |
| 20260901073906 | 60 | 256 | 0.0 | 0.0 | 0.00 | 0.03 | 0.00 | 93 | 1012.9 |
| 20260901073405 | 60 | 256 | 0.0 | 0.0 | 0.00 | 0.03 | 0.00 | 93 | 1012.9 |
| 20260901071906 | 60 | 256 | 0.0 | 0.0 | 0.00 | 0.03 | 0.00 | 93 | 1012.9 |
| 20260901071404 | 60 | 256 | 0.0 | 0.0 | 0.00 | 0.03 | 0.00 | 93 | 1012.9 |
| 20260901070907 | 60 | 256 | 0.0 | 0.0 | 0.00 | 0.03 | 0.00 | 92 | 1012.9 |
| 20260901064906 | 60 | 256 | 0.0 | 0.0 | 0.00 | 0.03 | 0.00 | 92 | 1013.0 |
| 20260901064405 | 60 | 256 | 0.0 | 0.0 | 0.00 | 0.03 | 0.00 | 92 | 1012.9 |
| 20260901063905 | 60 | 256 | 0.0 | 0.0 | 0.00 | 0.03 | 0.00 | 92 | 1012.7 |
| 20260901063408 | 60 | 256 | 0.0 | 0.0 | 0.00 | 0.03 | 0.00 | 92 | 1012.6 |
| 20260901061908 | 60 | 256 | 0.0 | 0.0 | 0.00 | 0.03 | 0.00 | 92 | 1012.6 |
| 20260901061406 | 60 | 256 | 0.0 | 0.0 | 0.00 | 0.03 | 0.00 | 92 | 1012.7 |
| 20260901060909 | 60 | 256 | 0.0 | 0.0 | 0.00 | 0.03 | 0.00 | 92 | 1012.8 |
| 20260901060406 | 60 | 256 | 0.0 | 0.0 | 0.00 | 0.03 | 0.00 | 92 | 1013.0 |
| 20260901054905 | 60 | 257 | 0.0 | 0.0 | 0.00 | 0.03 | 0.03 | 92 | 1012.9 |
| 20260901054407 | 60 | 257 | 0.0 | 0.9 | 0.00 | 0.03 | 0.03 | 93 | 1012.8 |
| 20260901053906 | 60 | 257 | 0.0 | 0.9 | 0.00 | 0.03 | 0.03 | 93 | 1012.9 |
| 20260901053405 | 61 | 257 | 0.0 | 0.0 | 0.00 | 0.03 | 0.03 | 93 | 1012.7 |
| 20260901051905 | 61 | 257 | 0.0 | 0.0 | 0.00 | 0.04 | 0.03 | 93 | 1012.6 |
| 20260901050907 | 61 | 257 | 0.0 | 0.0 | 0.00 | 0.04 | 0.03 | 93 | 1012.7 |
| 20260901044908 | 61 | 257 | 0.0 | 0.0 | 0.00 | 0.04 | 0.03 | 93 | 1012.5 |
| 20260901044406 | 61 | 257 | 0.0 | 0.0 | 0.00 | 0.04 | 0.03 | 93 | 1012.3 |
| 20260901043904 | 62 | 257 | 0.0 | 0.0 | 0.00 | 0.04 | 0.03 | 92 | 1012.3 |
| 20260901043404 | 62 | 257 | 0.0 | 0.0 | 0.00 | 0.04 | 0.03 | 93 | 1012.4 |
| 20260901041918 | 61 | 257 | 0.0 | 0.0 | 0.01 | 0.04 | 0.03 | 92 | 1012.7 |
| 20260901041427 | 62 | 257 | 0.0 | 0.0 | 0.01 | 0.04 | 0.03 | 92 | 1012.7 |
| 20260901040924 | 62 | 257 | 0.0 | 0.0 | 0.01 | 0.04 | 0.03 | 92 | 1012.7 |
| 20260901040407 | 62 | 257 | 0.0 | 0.0 | 0.01 | 0.04 | 0.03 | 91 | 1012.9 |
| 20260901034904 | 62 | 257 | 0.0 | 0.0 | 0.01 | 0.04 | 0.03 | 91 | 1013.0 |
| 20260901034408 | 62 | 257 | 0.0 | 0.0 | 0.01 | 0.04 | 0.03 | 91 | 1012.9 |
| 20260901033405 | 62 | 277 | 0.0 | 0.0 | 0.01 | 0.04 | 0.03 | 90 | 1012.7 |
| 20260901031905 | 62 | 277 | 0.0 | 0.0 | 0.00 | 0.03 | 0.02 | 90 | 1012.7 |
| 20260901031408 | 62 | 277 | 0.0 | 0.0 | 0.01 | 0.03 | 0.02 | 90 | 1012.8 |
| 20260901030922 | 63 | 277 | 0.0 | 0.0 | 0.01 | 0.03 | 0.02 | 91 | 1012.7 |
| 20260901030420 | 63 | 277 | 0.0 | 0.0 | 0.01 | 0.03 | 0.02 | 90 | 1012.9 |
| 20260901024932 | 63 | 245 | 0.0 | 0.0 | 0.01 | 0.03 | 0.02 | 90 | 1012.5 |
| 20260901024427 | 63 | 188 | 0.0 | 0.0 | 0.01 | 0.03 | 0.02 | 90 | 1013.1 |
| 20260901023904 | 63 | 188 | 0.0 | 0.0 | 0.01 | 0.03 | 0.02 | 89 | 1013.3 |
| 20260901023404 | 63 | 188 | 0.0 | 0.0 | 0.01 | 0.03 | 0.02 | 88 | 1013.2 |
| 20260901021904 | 63 | 189 | 0.0 | 0.9 | 0.01 | 0.03 | 0.02 | 87 | 1013.5 |
| 20260901021405 | 63 | 218 | 0.0 | 0.9 | 0.01 | 0.03 | 0.02 | 87 | 1013.3 |
| 20260901020904 | 63 | 296 | 0.0 | 0.9 | 0.00 | 0.02 | 0.01 | 86 | 1012.7 |
| 20260901020408 | 63 | 298 | 0.0 | 10.4 | 0.00 | 0.02 | 0.01 | 84 | 1012.2 |
| 20260901014908 | 67 | 232 | 0.9 | 11.3 | 0.00 | 0.02 | 0.01 | 77 | 1011.5 |
| 20260901014406 | 68 | 240 | 2.6 | 12.2 | 0.00 | 0.02 | 0.01 | 71 | 1010.9 |
| 20260901013905 | 70 | 280 | 4.3 | 12.2 | 0.00 | 0.03 | 0.01 | 66 | 1010.5 |
| 20260901013403 | 70 | 297 | 0.0 | 5.2 | 0.00 | 0.03 | 0.01 | 66 | 1010.2 |
| 20260901011903 | 73 | 28 | 0.0 | 0.0 | 0.00 | 0.03 | 0.01 | 68 | 1009.6 |
| 20260901011407 | 75 | 28 | 0.0 | 0.0 | 0.00 | 0.03 | 0.01 | 63 | 1009.5 |
| 20260901010905 | 77 | 47 | 0.0 | 0.0 | 0.00 | 0.03 | 0.01 | 53 | 1009.4 |
| 20260901004905 | 81 | 95 | 0.0 | 0.0 | 0.00 | 0.03 | 0.01 | 45 | 1009.5 |
| 20260901004407 | 81 | 95 | 0.0 | 0.0 | 0.00 | 0.03 | 0.01 | 40 | 1009.5 |
| 20260901003906 | 81 | 95 | 0.0 | 0.0 | 0.00 | 0.03 | 0.01 | 36 | 1009.5 |
| 20260901001408 | 82 | 106 | 0.0 | 0.0 | 0.00 | 0.03 | 0.01 | 34 | 1009.6 |
| 20260901000406 | 83 | 107 | 0.0 | 0.0 | 0.00 | 0.03 | 0.01 | 33 | 1009.7 |
| 20260831234905 | 84 | 153 | 0.0 | 0.0 | 0.00 | 0.04 | 0.01 | 32 | 1009.8 |
| 20260831233905 | 84 | 153 | 0.0 | 0.0 | 0.00 | 0.04 | 0.01 | 32 | 1009.9 |
| 20260831233405 | 85 | 153 | 0.0 | 0.0 | 0.00 | 0.04 | 0.01 | 30 | 1009.8 |
| 20260831231909 | 86 | 153 | 0.0 | 2.6 | 0.00 | 0.04 | 0.01 | 28 | 1009.8 |
| 20260831231406 | 87 | 51 | 0.0 | 2.6 | 0.00 | 0.04 | 0.01 | 29 | 1009.8 |
| 20260831230905 | 87 | 59 | 0.0 | 0.0 | 0.00 | 0.04 | 0.01 | 29 | 1009.7 |
| 20260831230409 | 87 | 59 | 0.0 | 1.7 | 0.00 | 0.04 | 0.01 | 29 | 1009.8 |
| 20260831224904 | 86 | 78 | 0.0 | 0.0 | 0.00 | 0.05 | 0.01 | 30 | 1010.1 |
| 20260831224408 | 86 | 91 | 0.0 | 0.0 | 0.00 | 0.05 | 0.01 | 32 | 1010.2 |
| 20260831223906 | 86 | 131 | 0.0 | 0.0 | 0.00 | 0.05 | 0.01 | 32 | 1010.3 |
| 20260831223405 | 86 | 131 | 0.0 | 0.0 | 0.00 | 0.05 | 0.01 | 32 | 1010.3 |
| 20260831221905 | 85 | 55 | 0.0 | 0.0 | 0.00 | 0.05 | 0.01 | 33 | 1010.5 |
| 20260831221407 | 84 | 55 | 0.0 | 0.0 | 0.00 | 0.05 | 0.01 | 34 | 1010.6 |
| 20260831220906 | 84 | 55 | 0.0 | 0.0 | 0.00 | 0.05 | 0.01 | 34 | 1010.7 |
| 20260831220405 | 84 | 55 | 0.0 | 1.7 | 0.00 | 0.05 | 0.01 | 32 | 1010.7 |
| 20260831213906 | 85 | 49 | 0.0 | 0.0 | 0.00 | 0.06 | 0.01 | 33 | 1010.9 |
| 20260831213405 | 85 | 43 | 0.0 | 0.0 | 0.00 | 0.06 | 0.01 | 33 | 1011.0 |
| 20260831211905 | 86 | 77 | 0.0 | 0.9 | 0.00 | 0.06 | 0.01 | 33 | 1011.2 |
| 20260831211408 | 86 | 65 | 0.0 | 0.0 | 0.00 | 0.06 | 0.01 | 32 | 1011.3 |
| 20260831210907 | 85 | 65 | 0.0 | 0.0 | 0.00 | 0.06 | 0.01 | 33 | 1011.3 |
| 20260831210405 | 85 | 66 | 0.0 | 0.0 | 0.00 | 0.06 | 0.01 | 34 | 1011.5 |
| 20260831204906 | 84 | 68 | 0.0 | 0.0 | 0.00 | 0.06 | 0.01 | 34 | 1011.6 |
| 20260831203406 | 84 | 69 | 0.0 | 0.0 | 0.00 | 0.06 | 0.01 | 34 | 1011.9 |
| 20260831201905 | 84 | 70 | 0.0 | 0.0 | 0.00 | 0.06 | 0.01 | 32 | 1012.2 |
| 20260831201408 | 84 | 70 | 0.0 | 0.0 | 0.00 | 0.06 | 0.01 | 34 | 1012.3 |
| 20260831200906 | 83 | 70 | 0.0 | 0.0 | 0.00 | 0.06 | 0.01 | 34 | 1012.4 |
| 20260831200405 | 83 | 70 | 0.0 | 0.0 | 0.00 | 0.06 | 0.01 | 34 | 1012.5 |
| 20260831194905 | 82 | 70 | 0.0 | 0.0 | 0.00 | 0.06 | 0.01 | 36 | 1012.6 |
| 20260831194408 | 82 | 76 | 0.0 | 0.0 | 0.00 | 0.06 | 0.01 | 34 | 1012.7 |
| 20260831193906 | 82 | 79 | 0.0 | 0.0 | 0.00 | 0.06 | 0.01 | 37 | 1012.7 |
| 20260831193405 | 81 | 79 | 0.0 | 0.0 | 0.00 | 0.06 | 0.01 | 36 | 1012.8 |
| 20260831191905 | 82 | 79 | 0.0 | 0.0 | 0.00 | 0.06 | 0.01 | 39 | 1013.0 |
| 20260831191408 | 81 | 79 | 0.0 | 0.0 | 0.00 | 0.06 | 0.01 | 38 | 1013.1 |
| 20260831190406 | 81 | 79 | 0.0 | 0.0 | 0.00 | 0.06 | 0.01 | 38 | 1013.3 |
| 20260831184905 | 81 | 79 | 0.0 | 0.0 | 0.00 | 0.06 | 0.01 | 39 | 1013.5 |
| 20260831184408 | 81 | 79 | 0.0 | 0.0 | 0.00 | 0.06 | 0.01 | 39 | 1013.5 |
| 20260831183907 | 81 | 79 | 0.0 | 0.0 | 0.00 | 0.06 | 0.01 | 40 | 1013.5 |
| 20260831183405 | 81 | 79 | 0.0 | 0.0 | 0.00 | 0.06 | 0.01 | 38 | 1013.5 |
| 20260831181404 | 80 | 88 | 0.0 | 0.0 | 0.00 | 0.06 | 0.01 | 40 | 1013.7 |
| 20260831180407 | 80 | 88 | 0.0 | 0.0 | 0.01 | 0.06 | 0.01 | 39 | 1013.8 |
| 20260831174905 | 78 | 88 | 0.0 | 0.0 | 0.01 | 0.06 | 0.01 | 42 | 1013.9 |
| 20260831174403 | 78 | 88 | 0.0 | 0.0 | 0.01 | 0.06 | 0.01 | 41 | 1013.9 |
| 20260831173903 | 78 | 88 | 0.0 | 0.0 | 0.01 | 0.06 | 0.01 | 43 | 1013.9 |
| 20260831173406 | 78 | 132 | 0.0 | 0.0 | 0.01 | 0.06 | 0.01 | 43 | 1013.9 |
| 20260831171908 | 78 | 132 | 0.0 | 0.0 | 0.01 | 0.06 | 0.01 | 46 | 1014.0 |
| 20260831170404 | 78 | 132 | 0.0 | 0.0 | 0.00 | 0.05 | 0.00 | 44 | 1014.1 |
| 20260831164904 | 77 | 132 | 0.0 | 0.0 | 0.00 | 0.05 | 0.00 | 44 | 1014.1 |
| 20260831164403 | 77 | 132 | 0.0 | 0.0 | 0.00 | 0.05 | 0.00 | 44 | 1014.1 |
| 20260831163907 | 77 | 132 | 0.0 | 0.0 | 0.00 | 0.05 | 0.00 | 45 | 1014.2 |
| 20260831163405 | 76 | 132 | 0.0 | 0.0 | 0.00 | 0.05 | 0.00 | 45 | 1014.2 |
| 20260831161905 | 76 | 132 | 0.0 | 0.0 | 0.00 | 0.05 | 0.00 | 43 | 1014.1 |
| 20260831161404 | 76 | 132 | 0.0 | 0.0 | 0.00 | 0.05 | 0.00 | 44 | 1014.0 |
| 20260831160904 | 76 | 132 | 0.0 | 0.0 | 0.00 | 0.05 | 0.00 | 42 | 1014.0 |
| 20260831160407 | 75 | 132 | 0.0 | 0.0 | 0.00 | 0.05 | 0.00 | 46 | 1013.9 |
| 20260831154908 | 74 | 132 | 0.0 | 0.0 | 0.00 | 0.05 | 0.00 | 51 | 1014.0 |
| 20260831154406 | 74 | 132 | 0.0 | 0.0 | 0.00 | 0.05 | 0.00 | 52 | 1014.0 |
| 20260831153909 | 74 | 132 | 0.0 | 0.0 | 0.00 | 0.05 | 0.00 | 52 | 1014.0 |
| 20260831151905 | 71 | 132 | 0.0 | 0.0 | 0.00 | 0.05 | 0.00 | 58 | 1014.0 |
| 20260831151409 | 70 | 132 | 0.0 | 0.0 | 0.00 | 0.05 | 0.00 | 59 | 1014.0 |
| 20260831150907 | 69 | 132 | 0.0 | 0.0 | 0.00 | 0.05 | 0.00 | 58 | 1014.0 |
| 20260831150406 | 68 | 132 | 0.0 | 0.0 | 0.00 | 0.05 | 0.00 | 61 | 1014.0 |
| 20260831144907 | 66 | 132 | 0.0 | 0.0 | 0.00 | 0.05 | 0.00 | 70 | 1013.9 |
| 20260831144405 | 65 | 132 | 0.0 | 0.0 | 0.00 | 0.05 | 0.00 | 72 | 1014.0 |
| 20260831143905 | 65 | 132 | 0.0 | 0.0 | 0.00 | 0.05 | 0.00 | 74 | 1014.1 |
| 20260831143408 | 65 | 132 | 0.0 | 0.0 | 0.00 | 0.05 | 0.00 | 74 | 1014.1 |